Regional Weather Roundup
Issued by NWS

Home | Current Version | Previous Version | Text Only | Print | Product List | Glossary Off
Versions: 1 2 3 4 5 6 7 8 9 10 11 12 13 14 15 16 17 18 19 20 21 22 23 24 25 26 27 28 29 30 31 32 33 34 35 36 37 38 39 40 41 42 43 44 45 46 47 48 49 50

000
ASUS45 KBOU 081407
RWRCO

WEATHER ROUNDUP FOR COLORADO
NATIONAL WEATHER SERVICE DENVER/BOULDER CO
700 AM MST THU DEC 08 2016

NOTE: "FAIR" INDICATES FEW OR NO CLOUDS BELOW 12000 FEET WITH NO
SIGNIFICANT WEATHER AND/OR OBSTRUCTIONS TO VISIBILITY.

COZ001>005-013-030-031-081500-
...NORTHWEST COLORADO...

CITY           SKY/WX    TMP DP  RH WIND       PRES   REMARKS
CRAIG          FAIR      -3 -10  72 W3        30.31R
HAYDEN         FAIR      -2 -11  65 E13       30.27S WCI -21
MEEKER         MOCLDY     0  -5  79 CALM      30.29R
MOUNT WERNER   NOT AVBL
STEAMBOAT SPGS FAIR     -11 -15  81 CALM      30.27S
WALDEN           N/A    -26 -33  68 CALM      30.21S
$$

COZ006>008-011-081500-
...WEST CENTRAL VALLEYS...

CITY           SKY/WX    TMP DP  RH WIND       PRES   REMARKS
GRAND JUNCTION MOCLDY    17   7  64 E8        30.34R WCI   7
MONTROSE       MOCLDY    15   7  70 E5        30.35R WCI   8
EAGLE          CLOUDY    -1  -7  75 CALM      30.38R
RIFLE          FAIR      10   3  73 CALM      30.36R
DELTA          NOT AVBL
NUCLA          MOCLDY    12   1  62 CALM      30.34R
$$

COZ017>023-064>068-081500-
...SOUTHWEST COLORADO...

CITY           SKY/WX    TMP DP  RH WIND       PRES   REMARKS
DURANGO        CLOUDY    10   2  69 CALM      30.28R
CORTEZ         CLOUDY    15   6  67 CALM      30.29R
PAGOSA SPRINGS FAIR       4  -3  75 CALM      30.25S
TELLURIDE      CLOUDY    14  -4  44 CALM      30.19R
WOLF CREEK PAS FAIR       1 -20  35 S17G25    30.14R WCI -19
$$

COZ009-010-012-014-032>034-037-058>063-081500-
...CENTRAL COLORADO...

CITY           SKY/WX    TMP DP  RH WIND       PRES   REMARKS
ASPEN          CLOUDY     2  -3  80 CALM      30.22R
BUENA VISTA    FAIR      -1 -10  68 NW6       30.23R WCI -13
COPPER MTN     CLOUDY     5 -20  30 MISG      30.02R
BERTHOUD PASS  CLOUDY    -4 -15  59 W24G30    29.96S WCI -29
COTTONWOOD PAS FAIR       5   0  78 SE5       30.10R WCI  -4
GUNNISON       FAIR      -1  -8  72 CALM      30.32R
KREMMLING      FAIR     N/A N/A N/A CALM      30.33R
LEADVILLE      CLOUDY    -3  -9  75 VRB6      30.09R WCI -15
MONARCH PASS   CLOUDY     1 -18  39 W31       30.15R WCI -24
SALIDA         FAIR       2  -3  80 CALM      30.33S
SUNLIGHT       CLOUDY     1  -2  85 SW13G20   30.14R WCI -16
WILKERSON PASS CLOUDY     0  -8  71 SW12G17   30.05S WCI -18
$$

COZ069>075-081500-
...SAN LUIS VALLEY/SANGRE DE CRISTO MOUNTAINS...

CITY           SKY/WX    TMP DP  RH WIND       PRES   REMARKS
ALAMOSA        CLOUDY    -4  -8  83 SE3       30.26R
LA VETA PASS   FAIR       5   0  78 NE23G35   30.09S WCI -17
SAGUACHE       NOT AVBL
$$

COZ035-036-038>040-081500-
...NORTHERN COLORADO FRONT RANGE...

CITY           SKY/WX    TMP DP  RH WIND       PRES   REMARKS
DENVER INTL AP FAIR      -4  -9  79 SW5       30.38R WCI -15
DMNS CITY PARK   N/A      1  -3  82 S3        30.39F
AURORA         PTCLDY    -2  -6  84 S5        30.36S WCI -12
FRONT RANGE AP PTCLDY    -8 -11  84 S5        30.38  WCI -19
ERIE MUNI ARPT CLOUDY     2  -1  85 CALM      30.41S
BOULDER MUN AP FAIR       3   0  85 CALM      30.39S
CENTENNIAL     FAIR      -2  -6  83 CALM      30.34S
BROOMFIELD     CLOUDY     5   1  85 VRB3      30.37R
FORT COLLINS   FAIR      -6 -11  77 CALM      30.42S
LONGMONT       CLOUDY     1  -5  76 NW3       30.44S
$$

COZ041-046-047-076>085-087-088-081500-
...PIKES PEAK/PALMER DIVIDE AND SOUTHERN FOOTHILLS...

CITY           SKY/WX    TMP DP  RH WIND       PRES   REMARKS
COLO. SPRINGS  LGT SNOW   7   3  84 CALM      30.35R FOG
A. F. ACADEMY  CLOUDY     5   1  85 S5        30.30R WCI  -4
SCHRIEVER AFB  NOT AVBL
ELLICOTT       LGT RAIN N/A N/A N/A SW6         N/A
FALCON         LGT SNOW   5   3  90 SW7       30.29S WCI  -7
FORT CARSON    LGT SNOW   9   5  85 SE5       30.35S FOG     WCI   0
LIMON          FAIR     -12 -15  86 N3        30.41R
MONUMENT HILL  FAIR       1   0  92 CALM      30.27R
TRINIDAD       LGT SNOW  10   6  84 SE7       30.38R FOG     WCI  -1
$$

COZ042>045-048>051-090-091-081500-
...NORTHEAST COLORADO...

CITY           SKY/WX    TMP DP  RH WIND       PRES   REMARKS
GREELEY ARPT   FAIR     -15 -18  84 N6        30.47S HAZE    WCI -29
AKRON          FAIR      -6 -12  75 W8        30.45R WCI -21
BURLINGTON     FAIR      -3 -12  65 NW9       30.50R WCI -19
WRAY           FAIR      -8 -13  77 SW3       30.55
STERLING       FAIR     -15 -18  84 SW5       30.52R WCI -27
HOLYOKE        FAIR       1  -8  66 W5        30.53S WCI  -8
FORT MORGAN    FAIR     -13 -19  77 W6        30.48S WCI -27
$$

COZ086-089-092>099-081500-
...SOUTHEAST COLORADO...

CITY           SKY/WX    TMP DP  RH WIND       PRES   REMARKS
PUEBLO         CLOUDY    14   7  73 SE8       30.44S WCI   3
LA JUNTA       FAIR      12   4  70 SE5       30.50S WCI   4
LAMAR          FAIR       2  -4  76 CALM      30.53S
SPRINGFIELD      N/A     -5  -9  83 CALM      30.50R
$$



USA.gov is the U.S. government's official web portal to all federal, state and local government web resources and services.